When you browse on this site, cookies collect data to enhance your experience and personalize the content and advertising you see.
Visit our Privacy Policy to learn more. By continuing to use the site, you agree to this use of cookies and data.
  • En España
  • Lista de países
  • Para 7 días
  • Temperatura del agua
  • El tiempo en el mapa
  • Informadores
  • user-avatar
    Iniciar sesión

    Tiempo cada hora Ondjiwa

    Hoy, 26 Enero, Domingo

    Tiempo Temperatura Precipitaciones Viento Presión Humedad
    00:00 +27°C° 0 mm 2 mps 667 mmHg 57%
    01:00 +26°C° 0 mm 2 mps 667 mmHg 60%
    02:00 +26°C° 0 mm 2 mps 667 mmHg 60%
    03:00 +25°C° 0 mm 1 mps 666 mmHg 59%
    04:00 +25°C° 0 mm 1 mps 666 mmHg 59%
    05:00 +25°C° 0 mm 1 mps 667 mmHg 59%
    06:00 +25°C° 0 mm 1 mps 667 mmHg 60%
    07:00 +25°C° 0 mm 1 mps 668 mmHg 58%
    08:00 +28°C° 0 mm 1 mps 668 mmHg 53%
    09:00 +30°C° 0 mm 1 mps 668 mmHg 48%
    10:00 +32°C° 0 mm 1 mps 669 mmHg 43%
    11:00 +33°C° 0 mm 1 mps 668 mmHg 40%
    12:00 +34°C° 0 mm 2 mps 668 mmHg 38%
    13:00 +34°C° 0 mm 2 mps 668 mmHg 37%
    14:00 +32°C° 0.1 mm 2 mps 667 mmHg 41%
    15:00 +31°C° 0.1 mm 2 mps 666 mmHg 44%
    16:00 +31°C° 0.1 mm 3 mps 666 mmHg 48%
    17:00 +29°C° 0.5 mm 3 mps 666 mmHg 53%
    18:00 +28°C° 0.5 mm 2 mps 666 mmHg 59%
    19:00 +26°C° 0.5 mm 2 mps 666 mmHg 64%
    20:00 +26°C° 0.4 mm 2 mps 667 mmHg 67%
    21:00 +25°C° 0.4 mm 2 mps 667 mmHg 70%
    22:00 +25°C° 0.4 mm 1 mps 667 mmHg 72%
    23:00 +25°C° 0 mm 1 mps 667 mmHg 73%

    Mañana, 27 Enero, Lunes

    Tiempo Temperatura Precipitaciones Viento Presión Humedad
    00:00 +24°C° 0 mm 1 mps 667 mmHg 74%
    01:00 +24°C° 0 mm 1 mps 667 mmHg 75%
    02:00 +24°C° 0 mm 1 mps 667 mmHg 77%
    03:00 +23°C° 0 mm 1 mps 667 mmHg 79%
    04:00 +21°C° 0 mm 0 mps 666 mmHg 81%
    05:00 +21°C° 0 mm 0 mps 667 mmHg 79%
    06:00 +22°C° 0 mm 0 mps 667 mmHg 77%
    07:00 +22°C° 0 mm 0 mps 668 mmHg 75%
    08:00 +27°C° 0 mm 1 mps 668 mmHg 66%
    09:00 +29°C° 0 mm 1 mps 669 mmHg 56%
    10:00 +31°C° 0 mm 1 mps 669 mmHg 47%
    11:00 +32°C° 0 mm 2 mps 669 mmHg 42%
    12:00 +34°C° 0 mm 2 mps 668 mmHg 38%
    13:00 +35°C° 0 mm 3 mps 668 mmHg 34%
    14:00 +35°C° 0 mm 3 mps 667 mmHg 35%
    15:00 +34°C° 0 mm 3 mps 667 mmHg 37%
    16:00 +34°C° 0 mm 3 mps 666 mmHg 39%
    17:00 +31°C° 0.1 mm 2 mps 666 mmHg 45%
    18:00 +29°C° 0.1 mm 2 mps 666 mmHg 51%
    19:00 +27°C° 0.1 mm 2 mps 666 mmHg 58%
    20:00 +27°C° 0.2 mm 2 mps 666 mmHg 60%
    21:00 +26°C° 0.2 mm 2 mps 667 mmHg 63%
    22:00 +25°C° 0.2 mm 3 mps 668 mmHg 65%
    23:00 +25°C° 0.4 mm 3 mps 667 mmHg 70%

    Pasado mañana, 28 Enero, Martes

    Tiempo Temperatura Precipitaciones Viento Presión Humedad
    00:00 +24°C° 0.4 mm 2 mps 667 mmHg 76%
    01:00 +23°C° 0.4 mm 2 mps 667 mmHg 81%
    02:00 +23°C° 0 mm 2 mps 667 mmHg 81%
    03:00 +23°C° 0 mm 1 mps 667 mmHg 81%
    04:00 +23°C° 0 mm 1 mps 666 mmHg 81%
    05:00 +23°C° 0 mm 1 mps 667 mmHg 80%
    06:00 +24°C° 0 mm 1 mps 667 mmHg 79%
    07:00 +24°C° 0 mm 1 mps 668 mmHg 78%
    08:00 +26°C° 0 mm 1 mps 668 mmHg 68%
    09:00 +28°C° 0 mm 2 mps 668 mmHg 58%
    10:00 +30°C° 0 mm 2 mps 669 mmHg 48%
    11:00 +33°C° 0 mm 3 mps 668 mmHg 44%
    12:00 +34°C° 0 mm 3 mps 668 mmHg 40%
    13:00 +35°C° 0 mm 4 mps 667 mmHg 35%
    14:00 +35°C° 0 mm 3 mps 667 mmHg 37%
    15:00 +34°C° 0 mm 3 mps 666 mmHg 38%
    16:00 +34°C° 0 mm 3 mps 666 mmHg 40%
    17:00 +30°C° 0.6 mm 2 mps 666 mmHg 48%
    18:00 +28°C° 0.6 mm 2 mps 665 mmHg 57%
    19:00 +26°C° 0.6 mm 2 mps 665 mmHg 66%
    20:00 +26°C° 0.4 mm 2 mps 665 mmHg 68%
    21:00 +25°C° 0.4 mm 2 mps 666 mmHg 69%
    22:00 +25°C° 0.4 mm 2 mps 666 mmHg 71%
    23:00 +25°C° 0 mm 2 mps 666 mmHg 72%

    29 Enero, Miércoles

    Tiempo Temperatura Precipitaciones Viento Presión Humedad
    00:00 +24°C° 0 mm 2 mps 666 mmHg 72%
    01:00 +24°C° 0 mm 2 mps 666 mmHg 73%
    02:00 +24°C° 0 mm 1 mps 666 mmHg 75%
    03:00 +23°C° 0 mm 1 mps 666 mmHg 77%
    04:00 +23°C° 0 mm 1 mps 665 mmHg 80%
    05:00 +23°C° 0 mm 1 mps 666 mmHg 77%
    06:00 +24°C° 0 mm 1 mps 667 mmHg 75%
    07:00 +25°C° 0 mm 1 mps 667 mmHg 72%
    08:00 +27°C° 0 mm 1 mps 668 mmHg 64%
    09:00 +29°C° 0 mm 2 mps 668 mmHg 56%
    10:00 +31°C° 0 mm 2 mps 668 mmHg 48%
    11:00 +33°C° 0 mm 3 mps 668 mmHg 41%
    12:00 +35°C° 0 mm 3 mps 668 mmHg 35%
    13:00 +36°C° 0 mm 3 mps 667 mmHg 28%
    14:00 +36°C° 0 mm 3 mps 667 mmHg 27%
    15:00 +36°C° 0 mm 3 mps 666 mmHg 26%
    16:00 +37°C° 0 mm 3 mps 666 mmHg 25%
    17:00 +35°C° 0 mm 3 mps 666 mmHg 30%
    18:00 +32°C° 0 mm 2 mps 665 mmHg 35%
    19:00 +30°C° 0 mm 2 mps 665 mmHg 40%
    20:00 +29°C° 0 mm 1 mps 666 mmHg 44%
    21:00 +28°C° 0 mm 1 mps 666 mmHg 49%
    22:00 +28°C° 0 mm 1 mps 667 mmHg 53%
    23:00 +27°C° 0.1 mm 2 mps 667 mmHg 57%

    30 Enero, Jueves

    Tiempo Temperatura Precipitaciones Viento Presión Humedad
    00:00 +26°C° 0.1 mm 2 mps 666 mmHg 61%
    01:00 +25°C° 0.1 mm 2 mps 666 mmHg 65%
    02:00 +24°C° 0.1 mm 2 mps 666 mmHg 69%
    03:00 +23°C° 0.1 mm 2 mps 666 mmHg 73%
    04:00 +23°C° 0.1 mm 2 mps 666 mmHg 76%
    05:00 +23°C° 0.2 mm 2 mps 666 mmHg 76%
    06:00 +23°C° 0.2 mm 1 mps 667 mmHg 75%
    07:00 +24°C° 0.2 mm 1 mps 668 mmHg 74%
    08:00 +26°C° 0 mm 2 mps 668 mmHg 64%
    09:00 +28°C° 0 mm 2 mps 668 mmHg 55%
    10:00 +31°C° 0 mm 2 mps 669 mmHg 46%
    11:00 +32°C° 0 mm 2 mps 668 mmHg 41%
    12:00 +34°C° 0 mm 2 mps 668 mmHg 37%
    13:00 +36°C° 0 mm 3 mps 667 mmHg 32%
    14:00 +35°C° 0 mm 2 mps 667 mmHg 33%
    15:00 +35°C° 0 mm 2 mps 666 mmHg 35%
    16:00 +34°C° 0 mm 2 mps 666 mmHg 36%
    17:00 +32°C° 0.2 mm 2 mps 666 mmHg 42%
    18:00 +30°C° 0.2 mm 3 mps 665 mmHg 47%
    19:00 +28°C° 0.2 mm 3 mps 665 mmHg 53%
    20:00 +27°C° 0.5 mm 3 mps 666 mmHg 57%
    21:00 +26°C° 0.5 mm 2 mps 667 mmHg 61%
    22:00 +25°C° 0.5 mm 2 mps 667 mmHg 66%
    23:00 +24°C° 0.7 mm 2 mps 667 mmHg 71%

    31 Enero, Viernes

    Tiempo Temperatura Precipitaciones Viento Presión Humedad
    00:00 +24°C° 0.7 mm 2 mps 667 mmHg 77%
    01:00 +23°C° 0.7 mm 2 mps 667 mmHg 82%
    02:00 +23°C° 0.5 mm 2 mps 667 mmHg 84%
    03:00 +22°C° 0.5 mm 3 mps 667 mmHg 86%
    04:00 +21°C° 0.5 mm 3 mps 667 mmHg 87%
    05:00 +21°C° 0.4 mm 3 mps 667 mmHg 86%
    06:00 +22°C° 0.4 mm 3 mps 667 mmHg 84%
    07:00 +22°C° 0.4 mm 3 mps 668 mmHg 82%
    08:00 +24°C° 0.2 mm 3 mps 668 mmHg 75%
    09:00 +26°C° 0.2 mm 2 mps 669 mmHg 67%
    10:00 +27°C° 0.2 mm 2 mps 669 mmHg 60%
    11:00 +29°C° 0 mm 2 mps 669 mmHg 54%
    12:00 +30°C° 0 mm 2 mps 668 mmHg 49%
    13:00 +32°C° 0 mm 1 mps 668 mmHg 43%
    14:00 +31°C° 0.1 mm 1 mps 667 mmHg 46%
    15:00 +30°C° 0.1 mm 2 mps 667 mmHg 48%
    16:00 +29°C° 0.1 mm 2 mps 666 mmHg 51%
    17:00 +27°C° 1.3 mm 3 mps 666 mmHg 62%
    18:00 +25°C° 1.3 mm 4 mps 666 mmHg 73%
    19:00 +21°C° 1.3 mm 5 mps 665 mmHg 84%
    20:00 +21°C° 0.9 mm 4 mps 666 mmHg 83%
    21:00 +21°C° 0.9 mm 3 mps 666 mmHg 83%
    22:00 +21°C° 0.9 mm 2 mps 667 mmHg 82%
    23:00 +21°C° 0.2 mm 3 mps 667 mmHg 81%
    Mostrar más